Weather History for FAPP - February, 2013

Change the Weather History Date:

Monday, February 25, 2013

  Actual Average Record
Temperature  
Mean Temperature 63 °F -  
Max Temperature 71 °F - - ()
Min Temperature 55 °F - - ()
Degree Days  
Heating Degree Days 2    
Growing Degree Days 13 (Base 50)    
Moisture  
Dew Point 52 °F    
Average Humidity 70    
Maximum Humidity 94    
Minimum Humidity 46    
Precipitation  
Precipitation 0.00 in - - ()
Sea Level Pressure  
Sea Level Pressure 30.20 in    
Wind  
Wind Speed 5 mph ()    
Max Wind Speed 10 mph    
Max Gust Speed -    
Visibility 6.2 miles    
Events      
T = Trace of Precipitation, MM = Missing Value Source: Averaged Metar Reports

Daily Weather History Graph

Daily Weather History Graph

Search for Another Location

Airport or City:

Trip Planner

Search our weather history database for the weather conditions in past years. The results will help you decide how hot, cold, wet, or windy it might be!

Date:

Astronomy

Feb. 25, 2013 Rise Set
Actual Time 5:55 AM SAST 6:34 PM SAST
Civil Twilight 5:32 AM SAST 6:57 PM SAST
Nautical Twilight 5:05 AM SAST 7:24 PM SAST
Astronomical Twilight 4:37 AM SAST 7:52 PM SAST
Moon 6:09 PM SAST (2/25) 5:21 AM SAST (2/25)
Length of Visible Light 13h 25m
Length of Day
12h 39m
Full, 100% of the Moon is Illuminated
Feb 25
Full
Feb 25
Full
Mar 4
Last Quarter
Mar 11
New
Mar 19
First Quarter

Hourly Weather History & Observations

Time (SAST) Temp. Dew Point Humidity Pressure Visibility Wind Dir Wind Speed Gust Speed Precip Events Conditions
12:00 AM 57.2 °F 53.6 °F 88% 30.15 in - NE 4.6 mph - N/A   Unknown
1:00 AM 57.2 °F 53.6 °F 88% 30.15 in - North 1.2 mph - N/A   Unknown
2:00 AM 55.4 °F 53.6 °F 94% 30.15 in - North 2.3 mph - N/A   Unknown
3:00 AM 55.4 °F 53.6 °F 94% 30.15 in - North 2.3 mph - N/A   Unknown
4:00 AM 57.2 °F 53.6 °F 88% 30.15 in - North 1.2 mph - N/A   Unknown
5:00 AM 59.0 °F 53.6 °F 82% 30.15 in 6.2 mi ENE 9.2 mph - N/A   Overcast
6:00 AM 59.0 °F 53.6 °F 82% 30.18 in 6.2 mi ENE 10.4 mph - N/A   Overcast
7:00 AM 60.8 °F 51.8 °F 72% 30.21 in 6.2 mi ENE 8.1 mph - N/A   Overcast
8:00 AM 60.8 °F 51.8 °F 72% 30.24 in 6.2 mi ENE 6.9 mph - N/A   Mostly Cloudy
9:00 AM 60.8 °F 51.8 °F 72% 30.24 in 6.2 mi ENE 6.9 mph - N/A   Mostly Cloudy
10:00 AM 62.6 °F 51.8 °F 68% 30.27 in 6.2 mi NE 6.9 mph - N/A   Mostly Cloudy
11:00 AM 64.4 °F 51.8 °F 64% 30.24 in 6.2 mi NE 6.9 mph - N/A   Mostly Cloudy
12:00 PM 66.2 °F 51.8 °F 60% 30.24 in 6.2 mi NE 5.8 mph - N/A   Mostly Cloudy
1:00 PM 68.0 °F 51.8 °F 56% 30.21 in 6.2 mi NE 5.8 mph - N/A   Mostly Cloudy
2:00 PM 71.6 °F 51.8 °F 50% 30.21 in 6.2 mi ENE 6.9 mph - N/A   Mostly Cloudy
3:00 PM 71.6 °F 51.8 °F 50% 30.18 in 6.2 mi NNE 6.9 mph - N/A   Mostly Cloudy
4:00 PM 71.6 °F 51.8 °F 50% 30.18 in 6.2 mi NNE 4.6 mph - N/A   Mostly Cloudy
5:00 PM 71.6 °F 51.8 °F 50% 30.18 in 6.2 mi NNE 9.2 mph - N/A   Scattered Clouds
6:00 PM 71.6 °F 50.0 °F 46% 30.18 in - NNE 9.2 mph - N/A   Clear
7:00 PM 68.0 °F 50.0 °F 52% 30.21 in - NE 9.2 mph - N/A   Clear
8:00 PM 62.6 °F 51.8 °F 68% 30.21 in - NE 5.8 mph - N/A   Clear
9:00 PM 60.8 °F 51.8 °F 72% 30.21 in - NE 4.6 mph - N/A   Unknown
10:00 PM 59.0 °F 51.8 °F 77% 30.24 in - North 1.2 mph - N/A   Unknown
11:00 PM 57.2 °F 51.8 °F 82% 30.24 in - NW 2.3 mph - N/A   Unknown